Regional Weather Roundup
Issued by NWS

Home | Current Version | Previous Version | Graphics & Text | Print | Product List | Glossary On
Versions: 1 2 3 4 5 6 7 8 9 10 11 12 13 14 15 16 17 18 19 20 21 22 23 24 25 26 27 28 29 30 31 32 33 34 35 36 37 38 39 40 41 42 43 44 45 46 47 48 49 50
000
ASUS43 KOAX 230702
RWRNE

WEATHER ROUNDUP FOR NEBRASKA
NATIONAL WEATHER SERVICE OMAHA NE
200 AM CDT FRI JUN 23 2017

NOTES: SATELLITE DATA IS BEING USED TO AUGMENT CLOUD COVER ABOVE
       12000 FEET.
       "FAIR" INDICATES FEW OR NO CLOUDS BELOW 12,000 FEET WITH NO
       SIGNIFICANT WEATHER AND/OR OBSTRUCTIONS TO VISIBILITY.

  * THESE STATIONS DO NOT REPORT WEATHER SUCH AS RAIN...SNOW OR FOG.

NEZ001>004-019>022-054>056-230800-
NEBRASKA PANHANDLE

CITY           SKY/WX    TMP DP  RH WIND       PRES   REMARKS
SCOTTSBLUFF    CLOUDY    64  42  44 NE23G37   30.09R
ALLIANCE       LGT RAIN  57  46  66 N13       30.10R
CHADRON        CLOUDY    64  35  34 N21G30    30.12R
GORDON         CLOUDY    59  40  48 N8        30.09R
KIMBALL        CLOUDY    60  56  87 SE3       30.11F
SIDNEY         TSTM      59  55  87 N9        30.10R
$$

NEZ057>060-069>072-079>082-230800-
SOUTHWEST NEBRASKA

CITY           SKY/WX    TMP DP  RH WIND       PRES   REMARKS
NORTH PLATTE   CLOUDY    66  49  54 SE3       29.98R
IMPERIAL       MOCLDY    63  47  55 NE9       30.00R
LEXINGTON      CLOUDY    61  53  74 W6        29.96R
MCCOOK         MOCLDY    63  49  60 NE8       29.95R
OGALLALA       CLOUDY    66  48  52 NE6       30.01S
$$

NEZ005>010-023>029-035>040-094-230800-
NORTH CENTRAL NEBRASKA

CITY           SKY/WX    TMP DP  RH WIND       PRES   REMARKS
VALENTINE      CLOUDY    66  34  30 N15G22    29.99F
AINSWORTH      LGT RAIN  58  51  76 N9        29.99R
BROKEN BOW     PTCLDY    61  50  67 N8        29.97R
O`NEILL        CLOUDY    57  52  84 W5        29.94R
ORD            CLOUDY    58  49  72 NW6       29.92S
THEDFORD       MOCLDY    56  49  76 CALM      30.00F
$$

NEZ041-046>049-061>064-073>077-083>087-230800-
SOUTH CENTRAL NEBRASKA

CITY           SKY/WX    TMP DP  RH WIND       PRES   REMARKS
GRAND ISLAND   PTCLDY    63  57  81 N8        29.89F
AURORA         CLOUDY    66  58  75 N10       29.88S
HASTINGS       CLOUDY    67  57  70 N13       29.89S
HEBRON         CLOUDY    73  63  70 N18       29.82S
HOLDREGE       PTCLDY    64  53  68 N13G18    29.91R
KEARNEY *      PTCLDY    64  54  68 N13       29.91F
$$

NEZ011>018-030>034-042>045-230800-
NORTHEAST NEBRASKA

CITY           SKY/WX    TMP DP  RH WIND       PRES   REMARKS
NORFOLK        CLEAR     62  52  69 CALM      29.87S
ALBION         CLEAR     58  50  74 CALM      29.90R
BLAIR          CLOUDY    70  62  75 N9        29.85R
FREMONT        CLOUDY    70  57  64 N5        29.85F
TEKAMAH        CLOUDY    69  52  54 N12       29.84R
WAYNE          CLEAR     58  53  82 CALM      29.86S
$$

NEZ050>053-065>068-078-088>093-230800-
SOUTHEAST NEBRASKA

CITY           SKY/WX    TMP DP  RH WIND       PRES   REMARKS
LINCOLN        MOCLDY    72  63  73 N13       29.84R
OMAHA EPPLEY   CLOUDY    72  61  68 N17       29.82F
FALLS CITY     CLOUDY    74  67  78 NW10      29.75R THUNDER
NEBRASKA CITY  TSTM      69  69 100 N12G17    29.81R
PLATTSMOUTH    LGT RAIN  69  65  87 N5        29.83R
$$

NEZ044-045-051>053-067-230800-
OMAHA AREA

CITY           SKY/WX    TMP DP  RH WIND       PRES   REMARKS
OMAHA EPPLEY   CLOUDY    72  61  68 N17       29.82F
BLAIR          CLOUDY    70  62  75 N9        29.85R
FREMONT        CLOUDY    70  57  64 N5        29.85F
MILLARD        CLOUDY    74  64  70 N7        29.83S
OFFUTT AFB     MOCLDY    71  62  73 N7        29.88R
PLATTSMOUTH    LGT RAIN  69  65  87 N5        29.83R
WAHOO          FAIR      70  60  69 N12       29.85S
$$




USA.gov is the U.S. government's official web portal to all federal, state and local government web resources and services.